Location: Unspecified
(0.0000°N, 0.0000°E)
Time: 12:08:31
(UTC+00:00)

CZ-3B DEB - Pass Details

Date: 15 February 2026
Orbit: 716 x 41326 km, 26.5° (Epoch: 4 March)

Event Time Altitude Azimuth Distance (km) Brightness Sun altitude
Rises 23:29:20 0° 114° (ESE) 45,323 ? -73.1°
Reaches altitude 10° 00:50:43 10° 117° (ESE) 46,167 ? -74.4°
Maximum altitude 04:47:14 30° 124° (SE) 31,022 ? -21.2°
Drops below altitude 10° 06:24:44 10° 110° (ESE) 15,691 ? 2.6°
Sets 06:36:00 0° 105° (ESE) 13,877 ? 5.3°
